SCP
0 0 0 0 0 0 0 0 0 0 0 0 0 0 0 0 0 0 0 0 0 0 0 0 0 0 0 0 0 0 0 0 0 0 0 0 0 0 0 0 0 0 0
0 0 0 0 0 0 0 0 0 0 0 0 0 0 0 0 0 0 0 0 0 0 0 0 0 0 0 0 0 0 0 0 0 0 0 0 0 0 0 0 0 0 0
0 0 0 0 0 0 0 0 0 0 0 0 0 0 0 0 0 0 0 0 0 0 0 0 0 0 0 0 0 0 0 0 0 0 0 0 0 0 0 0 0 0 0
0 0 0 0 0 0 0 0 0 0 0 0 0 0 0 0 0 0 0 0 0 0 0 0 0 0 0 0 0 0 0 0 0 0 0 0 0 0 0 0 0 0 0
0 0 0 0 0 0 0 0 0 0 0 0 0 0 0 0 0 0 0 0 0 0 0 0 0 0 0 0 0 0 0 0 0 0 0 0 0 0 0 0 0 0 0
0 0 0 0 0 0 0 0 0 0 0 0 0 0 0 0 0 0 0 0 0 0 0 0 0 0 0 0 0 0 0 0 0 0 0 0 0 0 0 0 0 0 0
0 0 0 0 0 0 0 0 0 0 0 0 0 0 0 0 0 0 0 0 0 0 0 0 0 0 0 0 0 0 0 0 0 0 0 0 0 0 0 0 0 0 0
0 0 0 0 0 0 0 0 0 0 0 0 0 0 0 0 0 0 0 0 0 0 0 0 0 0 0 0 0 0 0 0 0 0 0 0 0 0 0 0 0 0 0
0 0 0 0 0 0 0 0 0 0 0 0 0 0 0 0 0 0 0 0 0 0 0 0 0 0 0 0 0 0 0 0 0 0 0 0 0 0 0 0 0 0 0
0 0 0 0 0 0 0 0 0 0 0 0 0 0 0 0 0 0 0 0 0 0 0 0 0 0 0 0 0 0 0 0 0 0 0 0 0 0 0 0 0 0 0
0 0 0 0 0 0 0 0 0 0 0 0 0 0 0 0 0 0 0 0 0 0 0 0 0 0 0 0 0 0 0 0 0 0 0 0 0 0 0 0 0 0 0
0 0 0 0 0 0 0 0 0 0 0 0 0 0 0 0 0 0 0 0 0 0 0 0 0 0 0 0 0 0 0 0 0 0 0 0 0 0 0 0 0 0 0
0 0 0 0 0 0 0 0 0 0 0 0 0 0 0 0 0 0 0 0 0 0 0 0 0 0 0 0 0 0 0 0 0 0 0 0 0 0 0 0 0 0 0
0 0 0 0 0 0 0 0 0 0 0 0 0 0 0 0 0 0 0 0 0 0 0 0 0 0 0 0 0 0 0 0 0 0 0 0 0 0 0 0 0 0 0
0 0 0 0 0 0 0 0 0 0 0 0 0 0 0 0 0 0 0 0 0 0 0 0 0 0 0 0 0 0 0 0 0 0 0 0 0 0 0 0 0 0 0
0 0 0 0 0 0 0 0 0 0 0 0 0 0 0 0 0 0 0 0 0 0 0 0 0 0 0 0 0 0 0 0 0 0 0 0 0 0 0 0 0 0 0
0 0 0 0 0 0 0 0 0 0 0 0 0 0 0 0 0 0 0 0 0 0 0 0 0 0 0 0 0 0 0 0 0 0 0 0 0 0 0 0 0 0 0
0 0 0 0 0 0 0 0 0 0 0 0 0 0 0 0 0 0 0 0 0 0 0 0 0 0 0 0 0 0 0 0 0 0 0 0 0 0 0 0 0 0 0
0 0 0 0 0 0 0 0 0 0 0 0 0 0 0 0 0 0 0 0 0 0 0 0 0 0 0 0 0 0 0 0 0 0 0 0 0 0 0 0 0 0 0
0 0 0 0 0 0 0 0 0 0 0 0 0 0 0 0 0 0 0 0 0 0 0 0 0 0 0 0 0 0 0 0 0 0 0 0 0 0 0 0 0 0 0
0 0 0 0 0 0 0 0 0 0 0 0 0 0 0 0 0 0 0 0 0 0 0 0 0 0 0 0 0 0 0 0 0 0 0 0 0 0 0 0 0 0 0
0 0 0 0 0 0 0 0 0 0 0 0 0 0 0 0 0 0 0 0 0 0 0 0 0 0 0 0 0 0 0 0 0 0 0 0 0 0 0 0 0 0 0
0 0 0 0 0 0 0 0 0 0 0 0 0 0 0 0 0 0 0 0 0 0 0 0 0 0 0 0 0 0 0 0 0 0 0 0 0 0 0 0 0 0 0
0 0 0 0 0 0 0 0 0 0 0 0 0 0 0 0 0 0 0 0 0 0 0 0 0 0 0 0 0 0 0 0 0 0 0 0 0 0 0 0 0 0 0
0 0 0 0 0 0 0 0 0 0 0 0 0 0 0 0 0 0 0 0 0 0 0 0 0 0 0 0 0 0 0 0 0 0 0 0 0 0 0 0 0 0 0
0 0 0 0 0 0 0 0 0 0 0 0 0 0 0 0 0 0 0 0 0 0 0 0 0 0 0 0 0 0 0 0 0 0 0 0 0 0 0 0 0 0 0
Wind_Speed_500mb
41 46 50 54 59 59 63 70 74 71 70 64 60 58 55 51 49 42 38 35 28 21 12 4 8 6 7 7 7 7 8 10 11 12 19 27 33 39 43 48 53 58 60
40 47 52 55 54 57 58 66 71 71 71 69 65 61 55 52 48 44 37 31 27 9 9 11 9 13 12 8 3 1 5 9 13 18 24 32 37 45 51 56 59 64 70
43 49 54 57 58 60 61 65 70 72 69 69 68 59 58 51 47 43 36 33 14 15 14 12 17 18 15 10 5 6 11 16 21 27 32 37 44 50 57 60 66 72 77
50 54 58 59 58 61 63 67 73 74 70 74 64 60 57 53 50 44 40 22 17 20 14 20 22 20 16 12 10 12 17 21 28 32 36 43 50 56 61 69 76 77 83
58 57 61 58 63 64 63 69 77 78 83 74 64 64 59 56 51 45 35 19 24 19 24 26 25 23 20 17 17 20 22 27 34 38 42 47 54 60 66 68 77 87 90
64 61 61 62 64 63 61 70 77 81 83 70 72 73 68 59 56 53 30 28 27 30 31 30 27 27 25 25 26 26 28 33 39 43 45 51 58 60 62 67 76 85 94
66 66 67 67 66 65 64 70 79 85 78 78 76 71 62 64 62 46 37 32 37 36 38 33 32 32 31 32 33 32 35 37 40 44 50 56 58 54 62 71 74 79 84
70 72 71 69 71 71 70 74 86 88 82 83 77 58 69 68 64 44 40 40 45 44 38 39 39 39 37 36 37 37 40 41 42 46 54 57 53 52 59 66 72 79 87
72 72 71 74 75 75 76 80 90 88 86 88 62 74 76 72 57 44 52 46 49 47 46 46 47 45 41 42 42 43 45 45 47 53 58 53 48 53 58 67 69 73 88
66 70 72 72 72 75 76 82 92 78 85 72 75 82 75 74 59 50 59 53 54 52 51 55 53 48 46 46 48 48 49 47 53 58 56 52 57 64 61 62 65 67 66
53 58 62 66 66 68 72 73 77 85 90 80 89 75 81 76 59 61 67 57 54 52 58 57 52 50 49 49 50 48 51 56 56 58 57 63 70 69 68 67 65 61 65
42 47 53 57 62 65 65 68 77 84 86 91 87 86 92 75 63 70 65 61 56 58 58 54 49 51 51 51 49 50 53 50 55 58 63 70 72 72 74 73 71 68 64
36 42 46 50 58 63 67 71 85 87 92 101 96 96 93 75 69 68 68 61 60 63 59 53 50 52 52 51 52 54 52 54 57 63 66 71 72 75 78 79 76 70 69
32 37 40 47 55 60 65 70 89 86 93 103 99 98 94 80 76 68 69 64 65 65 62 56 54 54 54 56 59 54 52 57 62 64 68 72 74 78 81 77 75 70 71
29 32 38 42 49 56 59 66 81 90 88 90 95 98 100 92 85 74 73 64 65 63 64 64 62 62 62 63 63 59 57 61 63 64 68 71 76 80 79 72 66 64 63
28 31 34 36 40 47 59 64 69 78 88 90 85 87 94 91 84 86 72 67 71 62 72 74 72 72 72 70 67 64 60 61 59 62 66 70 74 73 70 66 60 56 59
25 27 29 33 38 42 47 57 68 68 72 82 87 88 91 90 97 95 79 73 70 61 83 83 80 81 78 73 69 63 61 55 58 62 67 66 64 63 59 56 52 50 53
22 23 25 27 29 32 36 42 49 61 70 79 81 75 80 85 98 93 83 79 77 72 85 89 88 86 81 74 67 59 55 59 60 61 60 58 55 52 48 45 44 47 48
20 21 23 25 26 28 31 35 39 45 51 61 69 70 67 66 69 73 86 94 88 82 87 93 91 84 77 70 60 58 61 59 56 54 54 50 43 40 39 39 41 40 42
22 23 25 26 27 29 31 34 37 42 47 51 56 58 61 66 77 77 80 84 85 84 87 89 83 79 73 64 62 64 59 54 51 48 46 39 32 33 34 36 35 39 39
23 24 25 27 29 29 31 34 36 40 45 50 53 53 56 64 75 84 90 95 89 82 82 75 72 71 68 67 68 62 53 48 45 43 37 29 29 30 30 31 33 37 40
27 28 30 30 32 34 35 37 40 44 47 51 52 52 53 65 70 78 82 84 86 88 81 75 73 69 69 68 63 53 47 42 40 37 30 27 29 28 28 30 33 36 36
27 28 29 30 33 35 38 39 42 45 47 50 52 54 53 60 71 71 74 77 78 79 81 82 80 77 71 64 55 47 43 38 37 32 28 30 30 29 29 29 30 31 31
26 27 28 30 32 35 37 39 42 45 48 51 53 55 56 57 61 64 64 66 68 72 78 80 75 67 61 54 46 46 41 39 36 32 32 32 31 30 29 27 26 27 28
17 19 22 24 27 30 33 36 38 42 44 46 48 50 51 53 55 58 61 61 61 61 62 62 60 57 54 44 45 42 41 39 35 34 34 34 32 29 28 27 26 27 28
8 10 13 17 20 23 27 30 34 37 39 41 42 43 44 44 42 42 46 50 52 54 55 55 53 49 44 44 45 44 43 38 35 34 34 34 32 29 29 28 29 30 29
Wind_Direction_500mb
225 224 227 229 233 233 228 222 215 210 205 200 199 199 198 191 187 184 180 173 161 144 128 166 140 176 170 136 112 85 61 42 33 11 355 350 346 341 337 340 340 341 341
228 222 226 231 232 230 227 220 216 208 209 203 201 199 200 196 190 182 178 163 153 171 184 155 204 196 186 176 160 16 354 353 347 342 345 337 334 330 332 333 334 336 337
227 222 225 229 231 230 229 224 215 210 208 201 199 198 201 196 192 179 172 165 184 180 175 218 209 203 198 204 232 294 320 328 329 330 330 330 328 328 327 329 331 333 336
226 223 225 227 230 232 232 226 216 210 204 203 198 205 199 197 191 183 176 187 186 194 208 219 216 211 213 228 260 289 305 315 318 319 323 329 330 327 326 329 329 333 332
228 226 227 227 231 231 228 219 212 207 201 200 207 203 197 196 192 187 191 203 208 218 222 226 219 221 227 241 263 278 293 304 308 315 324 327 323 324 325 328 327 328 327
230 232 229 229 231 233 227 220 214 205 202 203 208 203 195 196 193 194 213 213 226 224 234 227 229 230 237 247 259 273 288 299 309 316 319 319 320 321 322 324 324 326 327
232 231 230 229 232 231 227 221 212 205 204 208 205 200 203 198 197 205 227 242 221 231 235 235 241 240 243 253 266 279 289 296 307 312 314 314 315 319 320 321 321 321 317
232 230 229 229 228 228 225 219 210 206 208 210 204 207 208 202 204 225 249 233 224 233 239 243 247 248 251 260 270 281 288 297 304 305 305 306 316 322 313 315 316 315 314
231 230 230 230 227 227 223 218 212 214 207 206 207 217 205 206 212 230 256 222 227 236 242 247 250 252 257 265 271 279 286 297 299 301 304 307 309 313 316 314 316 314 316
227 228 230 230 229 230 226 221 213 214 212 208 219 211 211 209 220 237 256 225 228 237 246 248 251 255 261 267 275 281 291 297 295 299 301 303 311 314 314 313 313 312 313
227 228 229 231 233 233 231 227 218 211 209 220 215 218 220 216 224 244 253 226 228 240 247 251 254 259 262 268 275 285 291 293 296 299 304 307 309 310 312 314 316 314 312
222 225 226 227 228 228 228 222 214 215 219 221 214 222 215 215 227 251 246 230 227 241 251 252 255 259 265 270 277 283 285 289 292 294 299 303 305 308 311 315 316 314 310
217 220 222 222 225 226 222 217 210 217 221 219 220 219 214 217 234 255 238 229 235 249 252 254 256 259 264 270 276 278 282 286 292 293 297 302 304 307 310 311 311 311 308
218 218 218 220 220 222 223 222 217 220 224 224 224 221 219 221 232 252 237 237 241 250 257 256 258 262 265 267 268 275 281 287 290 293 297 300 303 306 306 309 311 314 312
211 213 217 219 221 223 224 227 226 227 230 231 233 231 226 224 232 254 247 241 248 253 256 259 260 263 267 269 272 276 279 281 285 291 294 298 301 303 306 310 313 313 312
210 211 217 221 221 224 225 227 231 236 237 236 240 246 243 242 245 253 254 257 256 249 253 254 259 263 265 266 269 273 274 279 284 287 292 295 299 303 307 310 311 312 311
206 211 214 221 225 227 230 232 234 235 237 237 240 249 244 244 243 252 253 259 272 244 248 254 258 262 265 267 269 270 274 278 284 290 293 297 301 304 307 308 310 312 311
199 210 222 229 232 234 237 241 242 242 244 242 243 250 251 247 242 254 248 256 263 244 248 253 257 261 264 264 265 269 275 281 288 292 294 297 300 302 305 306 310 310 314
201 214 224 231 236 241 244 245 248 249 248 247 250 250 251 253 253 249 247 254 261 258 255 256 259 261 262 266 266 270 277 282 287 290 292 296 300 299 301 305 305 309 311
205 213 222 229 233 238 243 247 251 253 254 255 253 252 251 249 246 249 250 253 255 261 258 254 257 260 261 261 263 271 274 281 282 284 288 293 292 292 298 299 302 305 308
221 223 229 233 238 244 249 252 256 258 260 262 263 261 258 254 252 254 256 253 252 263 265 257 254 254 253 257 265 265 271 271 273 278 281 282 282 285 288 292 298 301 304
239 240 242 244 244 246 249 251 253 256 258 262 265 266 265 263 258 256 255 254 257 264 261 257 254 250 255 261 260 262 264 264 266 270 273 272 274 279 285 289 295 298 301
241 244 246 248 250 252 255 259 261 263 265 265 266 266 262 261 263 263 261 261 258 254 250 249 248 253 257 254 255 255 254 254 256 263 267 268 271 276 280 286 291 294 297
251 253 256 261 264 267 268 269 270 270 270 270 269 268 266 263 262 264 264 260 254 248 245 247 251 253 250 249 248 247 247 247 253 258 263 268 271 272 276 281 286 289 293
256 259 262 264 268 272 274 275 276 276 276 276 275 274 273 271 268 266 263 258 255 252 250 249 248 246 244 243 246 248 249 248 251 255 261 265 269 271 274 278 279 281 286
251 267 276 281 281 282 285 287 287 287 287 287 287 286 284 280 275 268 262 258 256 255 253 250 246 241 237 237 240 245 248 250 252 255 258 262 264 267 271 276 277 280 280
Wind_Speed_850mb
41 46 50 54 59 59 63 70 74 71 70 64 60 58 55 51 49 42 38 35 28 21 12 4 8 6 7 7 7 7 8 10 11 12 19 27 33 39 43 48 53 58 60
40 47 52 55 54 57 58 66 71 71 71 69 65 61 55 52 48 44 37 31 27 9 9 11 9 13 12 8 3 1 5 9 13 18 24 32 37 45 51 56 59 64 70
43 49 54 57 58 60 61 65 70 72 69 69 68 59 58 51 47 43 36 33 14 15 14 12 17 18 15 10 5 6 11 16 21 27 32 37 44 50 57 60 66 72 77
50 54 58 59 58 61 63 67 73 74 70 74 64 60 57 53 50 44 40 22 17 20 14 20 22 20 16 12 10 12 17 21 28 32 36 43 50 56 61 69 76 77 83
58 57 61 58 63 64 63 69 77 78 83 74 64 64 59 56 51 45 35 19 24 19 24 26 25 23 20 17 17 20 22 27 34 38 42 47 54 60 66 68 77 87 90
64 61 61 62 64 63 61 70 77 81 83 70 72 73 68 59 56 53 30 28 27 30 31 30 27 27 25 25 26 26 28 33 39 43 45 51 58 60 62 67 76 85 94
66 66 67 67 66 65 64 70 79 85 78 78 76 71 62 64 62 46 37 32 37 36 38 33 32 32 31 32 33 32 35 37 40 44 50 56 58 54 62 71 74 79 84
70 72 71 69 71 71 70 74 86 88 82 83 77 58 69 68 64 44 40 40 45 44 38 39 39 39 37 36 37 37 40 41 42 46 54 57 53 52 59 66 72 79 87
72 72 71 74 75 75 76 80 90 88 86 88 62 74 76 72 57 44 52 46 49 47 46 46 47 45 41 42 42 43 45 45 47 53 58 53 48 53 58 67 69 73 88
66 70 72 72 72 75 76 82 92 78 85 72 75 82 75 74 59 50 59 53 54 52 51 55 53 48 46 46 48 48 49 47 53 58 56 52 57 64 61 62 65 67 66
53 58 62 66 66 68 72 73 77 85 90 80 89 75 81 76 59 61 67 57 54 52 58 57 52 50 49 49 50 48 51 56 56 58 57 63 70 69 68 67 65 61 65
42 47 53 57 62 65 65 68 77 84 86 91 87 86 92 75 63 70 65 61 56 58 58 54 49 51 51 51 49 50 53 50 55 58 63 70 72 72 74 73 71 68 64
36 42 46 50 58 63 67 71 85 87 92 101 96 96 93 75 69 68 68 61 60 63 59 53 50 52 52 51 52 54 52 54 57 63 66 71 72 75 78 79 76 70 69
32 37 40 47 55 60 65 70 89 86 93 103 99 98 94 80 76 68 69 64 65 65 62 56 54 54 54 56 59 54 52 57 62 64 68 72 74 78 81 77 75 70 71
29 32 38 42 49 56 59 66 81 90 88 90 95 98 100 92 85 74 73 64 65 63 64 64 62 62 62 63 63 59 57 61 63 64 68 71 76 80 79 72 66 64 63
28 31 34 36 40 47 59 64 69 78 88 90 85 87 94 91 84 86 72 67 71 62 72 74 72 72 72 70 67 64 60 61 59 62 66 70 74 73 70 66 60 56 59
25 27 29 33 38 42 47 57 68 68 72 82 87 88 91 90 97 95 79 73 70 61 83 83 80 81 78 73 69 63 61 55 58 62 67 66 64 63 59 56 52 50 53
22 23 25 27 29 32 36 42 49 61 70 79 81 75 80 85 98 93 83 79 77 72 85 89 88 86 81 74 67 59 55 59 60 61 60 58 55 52 48 45 44 47 48
20 21 23 25 26 28 31 35 39 45 51 61 69 70 67 66 69 73 86 94 88 82 87 93 91 84 77 70 60 58 61 59 56 54 54 50 43 40 39 39 41 40 42
22 23 25 26 27 29 31 34 37 42 47 51 56 58 61 66 77 77 80 84 85 84 87 89 83 79 73 64 62 64 59 54 51 48 46 39 32 33 34 36 35 39 39
23 24 25 27 29 29 31 34 36 40 45 50 53 53 56 64 75 84 90 95 89 82 82 75 72 71 68 67 68 62 53 48 45 43 37 29 29 30 30 31 33 37 40
27 28 30 30 32 34 35 37 40 44 47 51 52 52 53 65 70 78 82 84 86 88 81 75 73 69 69 68 63 53 47 42 40 37 30 27 29 28 28 30 33 36 36
27 28 29 30 33 35 38 39 42 45 47 50 52 54 53 60 71 71 74 77 78 79 81 82 80 77 71 64 55 47 43 38 37 32 28 30 30 29 29 29 30 31 31
26 27 28 30 32 35 37 39 42 45 48 51 53 55 56 57 61 64 64 66 68 72 78 80 75 67 61 54 46 46 41 39 36 32 32 32 31 30 29 27 26 27 28
17 19 22 24 27 30 33 36 38 42 44 46 48 50 51 53 55 58 61 61 61 61 62 62 60 57 54 44 45 42 41 39 35 34 34 34 32 29 28 27 26 27 28
8 10 13 17 20 23 27 30 34 37 39 41 42 43 44 44 42 42 46 50 52 54 55 55 53 49 44 44 45 44 43 38 35 34 34 34 32 29 29 28 29 30 29
Wind_Direction_850mb
225 224 227 229 233 233 228 222 215 210 205 200 199 199 198 191 187 184 180 173 161 144 128 166 140 176 170 136 112 85 61 42 33 11 355 350 346 341 337 340 340 341 341
228 222 226 231 232 230 227 220 216 208 209 203 201 199 200 196 190 182 178 163 153 171 184 155 204 196 186 176 160 16 354 353 347 342 345 337 334 330 332 333 334 336 337
227 222 225 229 231 230 229 224 215 210 208 201 199 198 201 196 192 179 172 165 184 180 175 218 209 203 198 204 232 294 320 328 329 330 330 330 328 328 327 329 331 333 336
226 223 225 227 230 232 232 226 216 210 204 203 198 205 199 197 191 183 176 187 186 194 208 219 216 211 213 228 260 289 305 315 318 319 323 329 330 327 326 329 329 333 332
228 226 227 227 231 231 228 219 212 207 201 200 207 203 197 196 192 187 191 203 208 218 222 226 219 221 227 241 263 278 293 304 308 315 324 327 323 324 325 328 327 328 327
230 232 229 229 231 233 227 220 214 205 202 203 208 203 195 196 193 194 213 213 226 224 234 227 229 230 237 247 259 273 288 299 309 316 319 319 320 321 322 324 324 326 327
232 231 230 229 232 231 227 221 212 205 204 208 205 200 203 198 197 205 227 242 221 231 235 235 241 240 243 253 266 279 289 296 307 312 314 314 315 319 320 321 321 321 317
232 230 229 229 228 228 225 219 210 206 208 210 204 207 208 202 204 225 249 233 224 233 239 243 247 248 251 260 270 281 288 297 304 305 305 306 316 322 313 315 316 315 314
231 230 230 230 227 227 223 218 212 214 207 206 207 217 205 206 212 230 256 222 227 236 242 247 250 252 257 265 271 279 286 297 299 301 304 307 309 313 316 314 316 314 316
227 228 230 230 229 230 226 221 213 214 212 208 219 211 211 209 220 237 256 225 228 237 246 248 251 255 261 267 275 281 291 297 295 299 301 303 311 314 314 313 313 312 313
227 228 229 231 233 233 231 227 218 211 209 220 215 218 220 216 224 244 253 226 228 240 247 251 254 259 262 268 275 285 291 293 296 299 304 307 309 310 312 314 316 314 312
222 225 226 227 228 228 228 222 214 215 219 221 214 222 215 215 227 251 246 230 227 241 251 252 255 259 265 270 277 283 285 289 292 294 299 303 305 308 311 315 316 314 310
217 220 222 222 225 226 222 217 210 217 221 219 220 219 214 217 234 255 238 229 235 249 252 254 256 259 264 270 276 278 282 286 292 293 297 302 304 307 310 311 311 311 308
218 218 218 220 220 222 223 222 217 220 224 224 224 221 219 221 232 252 237 237 241 250 257 256 258 262 265 267 268 275 281 287 290 293 297 300 303 306 306 309 311 314 312
211 213 217 219 221 223 224 227 226 227 230 231 233 231 226 224 232 254 247 241 248 253 256 259 260 263 267 269 272 276 279 281 285 291 294 298 301 303 306 310 313 313 312
210 211 217 221 221 224 225 227 231 236 237 236 240 246 243 242 245 253 254 257 256 249 253 254 259 263 265 266 269 273 274 279 284 287 292 295 299 303 307 310 311 312 311
206 211 214 221 225 227 230 232 234 235 237 237 240 249 244 244 243 252 253 259 272 244 248 254 258 262 265 267 269 270 274 278 284 290 293 297 301 304 307 308 310 312 311
199 210 222 229 232 234 237 241 242 242 244 242 243 250 251 247 242 254 248 256 263 244 248 253 257 261 264 264 265 269 275 281 288 292 294 297 300 302 305 306 310 310 314
201 214 224 231 236 241 244 245 248 249 248 247 250 250 251 253 253 249 247 254 261 258 255 256 259 261 262 266 266 270 277 282 287 290 292 296 300 299 301 305 305 309 311
205 213 222 229 233 238 243 247 251 253 254 255 253 252 251 249 246 249 250 253 255 261 258 254 257 260 261 261 263 271 274 281 282 284 288 293 292 292 298 299 302 305 308
221 223 229 233 238 244 249 252 256 258 260 262 263 261 258 254 252 254 256 253 252 263 265 257 254 254 253 257 265 265 271 271 273 278 281 282 282 285 288 292 298 301 304
239 240 242 244 244 246 249 251 253 256 258 262 265 266 265 263 258 256 255 254 257 264 261 257 254 250 255 261 260 262 264 264 266 270 273 272 274 279 285 289 295 298 301
241 244 246 248 250 252 255 259 261 263 265 265 266 266 262 261 263 263 261 261 258 254 250 249 248 253 257 254 255 255 254 254 256 263 267 268 271 276 280 286 291 294 297
251 253 256 261 264 267 268 269 270 270 270 270 269 268 266 263 262 264 264 260 254 248 245 247 251 253 250 249 248 247 247 247 253 258 263 268 271 272 276 281 286 289 293
256 259 262 264 268 272 274 275 276 276 276 276 275 274 273 271 268 266 263 258 255 252 250 249 248 246 244 243 246 248 249 248 251 255 261 265 269 271 274 278 279 281 286
251 267 276 281 281 282 285 287 287 287 287 287 287 286 284 280 275 268 262 258 256 255 253 250 246 241 237 237 240 245 248 250 252 255 258 262 264 267 271 276 277 280 280